1506826800.41,26956,14.19,74116.8,-1.27,-43.95,-44.13,0,*53
1506826801.61,26957,14.19,74112.5,-1.29,-43.87,-43.87,0,*55
1506826802.81,26958,14.25,74116.8,-1.29,-43.95,-44.07,0,*56
1506826804.01,26959,14.19,74112.5,-1.29,-43.87,-44.07,0,*54
1506826805.24,26960,14.19,74116.5,-1.29,-44.07,-44.13,0,*54
1506826806.49,26961,14.19,74112.0,-1.31,-44.33,-44.41,0,*5C
1506826807.77,26962,14.19,74118.3,-1.31,-44.21,-44.33,0,*59
1506826809.05,26963,14.19,74116.3,-1.31,-44.21,-44.33,0,*58
1506826810.28,26964,14.19,74118.8,-1.35,-44.41,-44.41,0,*58
1506826811.53,26965,14.19,74118.0,-1.35,-44.33,-44.41,0,*5C
1506826812.82,26966,14.19,74118.3,-1.35,-44.21,-44.13,0,*5B
1506826814.07,26967,14.19,74114.8,-1.35,-43.95,-44.01,0,*51
1506826815.35,26968,14.19,74114.8,-1.39,-44.01,-44.01,0,*58
1506826816.63,26969,14.19,74110.3,-1.39,-43.81,-43.81,0,*59
1506826817.86,26970,14.19,74106.0,-1.39,-43.61,-43.75,0,*54
1506826819.12,26971,14.19,74112.5,-1.35,-43.29,-43.15,0,*53
1506826820.4,26972,14.19,74112.0,-1.31,-42.57,-42.69,0,*56
1506826821.66,26973,14.19,74104.0,-1.35,-42.89,-42.95,0,*53
1506826822.88,26974,14.19,74104.8,-1.31,-42.75,-42.89,0,*5E
1506826824.12,26975,14.19,74106.0,-1.31,-42.51,-42.51,0,*5C
1506826825.37,26976,14.19,74102.5,-1.31,-42.51,-42.57,0,*59
1506826826.6,26977,14.19,74104.5,-1.29,-42.63,-42.69,0,*5D
1506826827.87,26978,14.19,74106.8,-1.27,-42.31,-42.45,0,*55
1506826829.11,26979,14.19,74104.8,-1.27,-42.51,-42.63,0,*56
1506826830.34,26980,14.19,74106.3,-1.29,-42.51,-42.69,0,*54
1506826831.6,26981,14.19,74110.8,-1.27,-43.01,-43.21,0,*52
1506826832.86,26982,14.25,74114.5,-1.27,-43.29,-43.41,0,*5D
1506826834.14,26983,14.19,74110.3,-1.27,-43.21,-43.21,0,*52
1506826835.42,26984,14.19,74110.8,-1.27,-43.09,-43.21,0,*5F
1506826836.62,26985,14.19,74112.0,-1.25,-43.35,-43.35,0,*56
1506826837.85,26986,14.19,74108.5,-1.25,-43.67,-43.87,0,*5B
1506826839.05,26987,14.19,74110.8,-1.25,-44.07,-44.07,0,*54
1506826840.29,26988,14.19,74110.3,-1.25,-43.67,-43.81,0,*53
1506826841.55,26989,14.19,74112.3,-1.27,-44.07,-44.13,0,*5D
1506826842.8,26990,14.19,74110.8,-1.29,-44.13,-44.33,0,*5C
1506826844.03,26991,14.19,74112.3,-1.27,-43.87,-44.07,0,*5E
1506826845.25,26992,14.19,74106.8,-1.27,-43.87,-44.07,0,*5D
1506826846.45,26993,14.19,74110.8,-1.29,-43.87,-43.87,0,*5D
1506826847.65,26994,14.25,74114.3,-1.29,-43.87,-44.07,0,*55
1506826848.87,26995,14.19,74108.5,-1.29,-43.95,-44.13,0,*52
1506826850.11,26996,14.19,74110.3,-1.29,-43.61,-43.67,0,*5E
1506826851.32,26997,14.19,74108.3,-1.29,-43.49,-43.49,0,*59
1506826852.53,26998,14.19,74108.8,-1.29,-43.61,-43.61,0,*56
1506826853.77,26999,14.19,74110.0,-1.29,-43.01,-43.21,0,*55
1506826855.0,27000,14.19,74110.8,-1.29,-42.69,-42.63,0,*55
1506826856.24,27001,14.19,74106.8,-1.29,-43.01,-43.09,0,*56
1506826857.49,27002,14.19,74104.3,-1.27,-42.83,-42.89,0,*59
1506826858.73,27003,14.19,74104.8,-1.29,-43.01,-43.21,0,*5E
1506826859.96,27004,14.25,74116.5,-1.29,-42.89,-43.09,0,*52
1506826861.23,27005,14.19,74108.3,-1.27,-43.21,-43.21,0,*54
1506826862.52,27006,14.19,74110.8,-1.27,-43.09,-43.09,0,*57
1506826863.8,27007,14.19,74108.0,-1.27,-43.09,-43.21,0,*5C
1506826865.03,27008,14.19,74110.5,-1.27,-42.89,-43.01,0,*58
1506826866.31,27009,14.19,74108.8,-1.27,-43.29,-43.29,0,*58
1506826867.55,27010,14.19,74106.8,-1.27,-43.49,-43.49,0,*50
1506826868.76,27011,14.19,74110.8,-1.29,-43.41,-43.61,0,*5D
1506826869.99,27012,14.19,74108.3,-1.27,-43.75,-43.87,0,*5F
1506826871.22,27013,14.19,74110.8,-1.27,-43.75,-43.87,0,*5E
1506826872.5,27014,14.19,74110.5,-1.27,-43.67,-43.67,0,*54
1506826873.76,27015,14.19,74112.0,-1.27,-43.29,-43.41,0,*5B
1506826875.0,27016,14.19,74112.0,-1.27,-43.49,-43.61,0,*5C
1506826876.23,27017,14.19,74110.8,-1.27,-43.49,-43.49,0,*57
1506826877.46,27018,14.25,74112.5,-1.29,-43.29,-43.41,0,*58
1506826878.67,27019,14.19,74112.0,-1.29,-43.49,-43.61,0,*5D
1506826879.91,27020,14.19,74108.3,-1.27,-43.61,-43.49,0,*59
1506826881.15,27021,14.19,74110.8,-1.27,-43.61,-43.61,0,*52
1506826882.41,27022,14.19,74108.8,-1.27,-43.29,-43.41,0,*5F
1506826883.64,27023,14.25,74108.8,-1.29,-43.29,-43.41,0,*50
1506826884.91,27024,14.19,74106.3,-1.27,-43.09,-43.41,0,*5B
1506826886.16,27025,14.19,74110.3,-1.27,-43.21,-43.41,0,*50
1506826887.44,27026,14.19,74110.3,-1.27,-43.21,-43.29,0,*5D
1506826888.7,27027,14.25,74112.3,-1.27,-43.41,-43.29,0,*5A
1506826889.92,27028,14.19,74106.5,-1.25,-43.21,-43.35,0,*5C
1506826891.16,27029,14.19,74110.3,-1.27,-43.41,-43.41,0,*5A
1506826892.36,27030,14.19,74108.0,-1.25,-43.35,-43.35,0,*50
1506826893.62,27031,14.25,74112.3,-1.23,-43.55,-43.35,0,*51
1506826894.88,27032,14.19,74114.3,-1.27,-43.29,-43.41,0,*5E
1506826896.11,27033,14.19,74112.8,-1.25,-43.67,-43.61,0,*55
1506826897.34,27034,14.19,74108.5,-1.25,-43.55,-43.61,0,*53
1506826898.57,27035,14.19,74112.5,-1.25,-43.55,-43.61,0,*52
1506826899.81,27036,14.19,74114.8,-1.27,-43.61,-43.49,0,*5E
1506826901.04,27037,14.19,74116.0,-1.27,-43.41,-43.61,0,*57
1506826902.28,27038,14.25,74114.3,-1.27,-43.49,-43.61,0,*50
1506826903.51,27039,14.19,74114.3,-1.27,-43.49,-43.61,0,*51
1506826904.8,27040,14.25,74112.5,-1.27,-43.67,-43.67,0,*55
1506826905.99,27041,14.19,74114.3,-1.25,-43.87,-44.07,0,*59
1506826907.22,27042,14.19,74112.0,-1.27,-43.87,-44.07,0,*58
1506826908.45,27043,14.19,74110.0,-1.27,-43.75,-43.87,0,*5B
1506826909.66,27044,14.19,74110.8,-1.29,-43.75,-43.95,0,*51
1506826910.86,27045,14.19,74112.0,-1.29,-43.75,-43.87,0,*53
1506826912.09,27046,14.19,74110.3,-1.27,-43.87,-43.95,0,*50
1506826913.32,27047,14.19,74108.8,-1.27,-43.87,-44.07,0,*5D
1506826914.55,27048,14.19,74108.0,-1.27,-43.75,-43.87,0,*50
1506826915.76,27049,14.19,74104.3,-1.29,-43.75,-43.75,0,*52
1506826916.99,27050,14.19,74106.5,-1.27,-43.75,-43.95,0,*5A
1506826918.23,27051,14.19,74102.5,-1.29,-43.49,-43.67,0,*57
1506826919.44,27052,14.19,74100.3,-1.29,-43.49,-43.49,0,*58
1506826920.71,27053,14.19,74104.5,-1.27,-43.21,-43.21,0,*57
1506826921.94,27054,14.19,74104.3,-1.29,-43.29,-43.41,0,*50
1506826923.18,27055,14.19,74102.0,-1.27,-43.49,-43.61,0,*5B
1506826924.39,27056,14.19,74104.5,-1.29,-43.61,-43.61,0,*5C
1506826925.63,27057,14.19,74104.8,-1.29,-43.61,-43.67,0,*5B
1506826926.84,27058,14.19,74106.0,-1.29,-43.49,-43.49,0,*52
1506826928.07,27059,14.19,74108.3,-1.29,-42.89,-43.09,0,*5A
1506826929.27,27060,14.19,74106.8,-1.29,-42.89,-42.89,0,*59
1506826930.53,27061,14.19,74110.0,-1.27,-42.83,-42.89,0,*5C
1506826931.76,27062,14.19,74110.5,-1.29,-43.01,-43.09,0,*53
1506826933.05,27063,14.19,74112.0,-1.27,-43.09,-43.09,0,*54
1506826934.28,27064,14.19,74114.8,-1.27,-42.89,-43.01,0,*52
1506826935.56,27065,14.19,74112.0,-1.27,-43.21,-43.21,0,*52
1506826936.81,27066,14.19,74112.3,-1.27,-42.83,-43.01,0,*5A
1506826938.06,27067,14.19,74114.8,-1.27,-42.83,-42.89,0,*5A
1506826939.3,27068,14.19,74112.8,-1.25,-42.95,-43.15,0,*54
1506826940.54,27069,14.19,74116.3,-1.25,-42.83,-43.21,0,*55
1506826941.77,27070,14.19,74114.8,-1.25,-42.95,-43.01,0,*58
1506826943.03,27071,14.19,74118.8,-1.23,-42.83,-43.01,0,*58
1506826944.27,27072,14.25,74122.0,-1.23,-43.01,-43.01,0,*50
1506826945.47,27073,14.19,74122.5,-1.25,-42.63,-42.75,0,*50
1506826946.71,27074,14.25,74124.3,-1.23,-43.01,-43.15,0,*53
1506826947.95,27075,14.19,74126.3,-1.23,-43.41,-43.35,0,*54
1506826949.18,27076,14.19,74122.8,-1.25,-43.41,-43.55,0,*57
1506826950.39,27077,14.19,74126.0,-1.25,-43.41,-43.41,0,*53
1506826951.65,27078,14.19,74124.8,-1.23,-43.41,-43.55,0,*5F
1506826952.91,27079,14.19,74124.8,-1.23,-43.01,-43.21,0,*59
1506826954.16,27080,14.19,74120.8,-1.23,-43.15,-43.21,0,*5A
1506826955.39,27081,14.19,74120.3,-1.25,-43.21,-43.35,0,*5F
1506826956.64,27082,14.19,74122.0,-1.23,-43.67,-43.87,0,*51
1506826957.86,27083,14.19,74120.0,-1.23,-43.87,-43.87,0,*5E
1506826959.09,27084,14.19,74116.8,-1.25,-44.01,-44.07,0,*59
1506826960.29,27085,14.19,74116.5,-1.25,-44.07,-44.41,0,*5C
1506826961.52,27086,14.19,74116.0,-1.25,-44.21,-44.41,0,*5B
1506826962.75,27087,14.19,74118.8,-1.25,-44.21,-44.41,0,*5A
1506826963.99,27088,14.19,74112.8,-1.25,-43.81,-44.01,0,*5C
1506826965.19,27089,14.19,74112.8,-1.29,-43.87,-43.87,0,*5E
1506826966.42,27090,14.19,74112.5,-1.27,-43.75,-43.75,0,*58
1506826967.68,27091,14.19,74114.8,-1.27,-43.67,-43.75,0,*5A
1506826968.92,27092,14.19,74118.3,-1.29,-43.61,-43.67,0,*52
1506826970.15,27093,14.19,74116.8,-1.27,-43.61,-43.75,0,*5E
1506826971.39,27094,14.19,74114.3,-1.27,-43.41,-43.41,0,*5C
1506826972.6,27095,14.19,74114.8,-1.29,-43.75,-43.75,0,*53
1506826973.81,27096,14.19,74114.8,-1.29,-43.75,-43.75,0,*50
1506826975.04,27097,14.19,74114.5,-1.27,-43.75,-43.95,0,*51
1506826976.25,27098,14.19,74116.0,-1.29,-44.07,-44.07,0,*5E
1506826977.47,27099,14.19,74112.3,-1.27,-43.87,-44.07,0,*5E
1506826978.73,27100,14.19,74112.8,-1.27,-44.07,-44.13,0,*55
1506826979.96,27101,14.19,74114.3,-1.29,-44.27,-44.33,0,*5A
1506826981.24,27102,14.19,74112.8,-1.31,-44.01,-44.13,0,*56
1506826982.52,27103,14.19,74112.5,-1.31,-44.01,-44.21,0,*56
1506826983.78,27104,14.19,74114.3,-1.31,-44.21,-44.41,0,*55
1506826985.03,27105,14.19,74114.3,-1.31,-43.95,-44.13,0,*5B
1506826986.28,27106,14.19,74114.8,-1.31,-44.21,-44.41,0,*57
1506826987.53,27107,14.19,74112.3,-1.31,-43.95,-44.13,0,*59
1506826988.79,27108,14.19,74116.0,-1.35,-44.21,-44.41,0,*5D
1506826990.02,27109,14.19,74118.8,-1.35,-44.41,-44.61,0,*58
1506826991.27,27110,14.19,74112.8,-1.35,-44.33,-44.61,0,*55
1506826992.51,27111,14.19,74114.3,-1.39,-44.27,-44.41,0,*5F
1506826993.77,27112,14.19,74110.3,-1.39,-44.21,-44.41,0,*5A
1506826995.0,27113,14.19,74112.3,-1.39,-44.27,-44.41,0,*5D
1506826996.26,27114,14.19,74112.3,-1.39,-44.07,-44.21,0,*5E
1506826997.54,27115,14.19,74112.5,-1.39,-44.01,-44.01,0,*5B
1506826998.79,27116,14.19,74114.5,-1.39,-43.81,-43.87,0,*5E
1506827000.04,27117,14.19,74114.8,-1.39,-43.87,-44.01,0,*50
1506827001.29,27118,14.25,74116.0,-1.39,-43.87,-44.01,0,*5F
1506827002.52,27119,14.19,74118.0,-1.41,-44.13,-44.27,0,*5F
1506827003.8,27120,14.19,74114.3,-1.39,-43.81,-44.01,0,*52
1506827005.01,27121,14.19,74106.5,-1.41,-43.41,-43.49,0,*5B
1506827006.26,27122,14.19,74114.3,-1.41,-43.21,-43.29,0,*58
1506827007.52,27123,14.19,74108.5,-1.39,-42.95,-43.01,0,*52
1506827008.76,27124,14.19,74112.8,-1.39,-43.01,-43.15,0,*5C
1506827010.02,27125,14.19,74108.5,-1.39,-42.95,-43.01,0,*54
1506827011.28,27126,14.19,74112.8,-1.39,-42.63,-42.83,0,*55
1506827012.51,27127,14.19,74108.5,-1.35,-42.75,-42.75,0,*56
1506827013.77,27128,14.19,74104.5,-1.35,-43.09,-43.15,0,*54
1506827015.03,27129,14.19,74110.5,-1.31,-43.75,-43.67,0,*5F
1506827016.3,27130,14.19,74104.8,-1.31,-43.81,-43.81,0,*54
1506827017.56,27131,14.19,74108.8,-1.35,-43.35,-43.55,0,*57
1506827018.79,27132,14.19,74110.8,-1.31,-43.15,-43.15,0,*56
1506827020.05,27133,14.19,74104.8,-1.35,-43.49,-43.55,0,*5E
1506827021.31,27134,14.19,74110.3,-1.35,-43.49,-43.67,0,*58
1506827022.54,27135,14.19,74106.0,-1.31,-43.35,-43.49,0,*5A
1506827023.8,27136,14.19,74104.3,-1.35,-43.49,-43.55,0,*5B
1506827025.08,27137,14.19,74108.3,-1.35,-43.55,-43.55,0,*57
1506827026.33,27138,14.19,74104.5,-1.31,-43.75,-43.81,0,*57
1506827027.59,27139,14.19,74110.3,-1.35,-43.35,-43.55,0,*5F
1506827028.85,27140,14.19,74108.0,-1.35,-43.49,-43.55,0,*5A
1506827030.11,27141,14.19,74110.5,-1.31,-43.35,-43.55,0,*54
1506827031.37,27142,14.19,74110.8,-1.35,-43.49,-43.55,0,*58
1506827032.65,27143,14.19,74106.5,-1.31,-43.09,-43.09,0,*50
1506827033.89,27144,14.19,74110.5,-1.35,-43.15,-43.35,0,*51
1506827035.15,27145,14.19,74110.0,-1.35,-43.29,-43.35,0,*5F
1506827036.38,27146,14.19,74110.0,-1.31,-43.35,-43.35,0,*55
1506827037.64,27147,14.19,74108.0,-1.35,-42.89,-42.95,0,*5D
1506827038.89,27148,14.19,74106.8,-1.31,-43.15,-43.29,0,*54
1506827040.17,27149,14.19,74112.8,-1.31,-43.67,-43.55,0,*5B
1506827041.4,27150,14.19,74108.8,-1.31,-43.49,-43.75,0,*5D
1506827042.66,27151,14.19,74108.0,-1.31,-43.49,-43.67,0,*5F
1506827043.92,27152,14.19,74108.8,-1.35,-43.49,-43.55,0,*59
1506827045.18,27153,14.19,74110.0,-1.35,-43.67,-43.75,0,*56
1506827046.43,27154,14.19,74104.8,-1.31,-43.67,-43.75,0,*55
1506827047.66,27155,14.19,74108.8,-1.35,-43.35,-43.49,0,*58
1506827048.9,27156,14.19,74110.3,-1.35,-43.75,-43.75,0,*50
1506827050.18,27157,14.19,74106.5,-1.35,-43.29,-43.55,0,*5A
1506827051.44,27158,14.19,74110.8,-1.35,-43.49,-43.55,0,*53
1506827052.7,27159,14.19,74110.0,-1.35,-42.95,-43.15,0,*56
1506827053.96,27160,14.19,74112.8,-1.31,-43.09,-43.15,0,*5C
1506827055.22,27161,14.19,74112.0,-1.31,-43.55,-43.49,0,*5D
1506827056.5,27162,14.19,74106.8,-1.35,-43.67,-43.67,0,*57
1506827057.76,27163,14.19,74110.8,-1.35,-43.81,-43.75,0,*5D
1506827059.02,27164,14.19,74108.5,-1.35,-43.49,-43.55,0,*5C
1506827060.28,27165,14.19,74108.8,-1.35,-43.75,-43.67,0,*53
1506827061.53,27166,14.19,74110.5,-1.31,-43.95,-44.01,0,*5D
1506827062.78,27167,14.19,74114.5,-1.35,-43.95,-43.81,0,*57
1506827064.04,27168,14.19,74116.5,-1.35,-43.75,-43.81,0,*56
1506827065.29,27169,14.19,74114.3,-1.35,-43.81,-43.95,0,*59
1506827066.55,27170,14.19,74112.3,-1.35,-43.95,-44.01,0,*5E
1506827067.83,27171,14.19,74112.8,-1.35,-44.01,-44.33,0,*54
1506827069.08,27172,14.19,74112.3,-1.39,-44.01,-44.07,0,*5C
1506827070.29,27173,14.19,74110.8,-1.41,-44.07,-44.07,0,*54
1506827071.55,27174,14.19,74112.3,-1.39,-44.21,-44.27,0,*5A
1506827072.8,27175,14.19,74116.8,-1.41,-44.13,-44.33,0,*50
1506827074.01,27176,14.19,74112.0,-1.41,-44.07,-44.27,0,*53
1506827075.29,27177,14.19,74112.0,-1.39,-44.01,-44.01,0,*5F
1506827076.55,27178,14.19,74112.5,-1.39,-43.55,-43.75,0,*52
1506827077.78,27179,14.19,74114.3,-1.41,-43.49,-43.67,0,*52
1506827078.99,27180,14.19,74114.8,-1.41,-43.95,-44.07,0,*54
1506827080.24,27181,14.19,74112.5,-1.39,-43.35,-43.55,0,*50
1506827081.47,27182,14.19,74112.5,-1.41,-43.29,-43.49,0,*5C
1506827082.71,27183,14.19,74114.0,-1.41,-43.29,-43.61,0,*57
1506827083.96,27184,14.19,74116.0,-1.39,-43.21,-43.35,0,*56
1506827085.25,27185,14.19,74110.0,-1.39,-42.83,-42.95,0,*55
1506827086.51,27186,14.19,74114.0,-1.39,-42.83,-43.01,0,*5A
1506827087.77,27187,14.19,74114.3,-1.39,-43.01,-43.21,0,*52
1506827089.03,27188,14.19,74112.5,-1.39,-42.75,-42.95,0,*51
1506827090.29,27189,14.19,74110.5,-1.35,-42.89,-42.95,0,*5F
1506827091.54,27190,14.19,74114.8,-1.35,-43.15,-43.29,0,*55
1506827092.83,27191,14.19,74110.5,-1.35,-43.55,-43.55,0,*5B
1506827094.09,27192,14.19,74108.8,-1.35,-43.49,-43.55,0,*55
1506827095.35,27193,14.19,74118.3,-1.35,-42.89,-43.09,0,*50
1506827096.63,27194,14.19,74118.0,-1.35,-43.09,-43.29,0,*5C
1506827097.89,27195,14.19,74116.0,-1.35,-43.67,-43.75,0,*5C
1506827099.12,27196,14.19,74116.5,-1.35,-43.75,-43.95,0,*52
1506827100.36,27197,14.19,74114.8,-1.35,-43.75,-43.75,0,*5D
1506827101.61,27198,14.19,74114.3,-1.35,-43.67,-43.75,0,*51
1506827102.89,27199,14.19,74116.3,-1.35,-43.81,-44.01,0,*5C
1506827104.15,27200,14.19,74112.8,-1.35,-43.81,-43.95,0,*55
1506827105.39,27201,14.19,74120.3,-1.35,-43.75,-43.95,0,*5F
1506827106.64,27202,14.19,74116.0,-1.39,-43.87,-44.01,0,*57
1506827107.89,27203,14.19,74122.3,-1.39,-43.87,-44.01,0,*56
1506827109.16,27204,14.19,74118.3,-1.39,-43.81,-43.81,0,*58
1506827110.41,27205,14.19,74120.5,-1.41,-43.81,-43.81,0,*56
1506827111.67,27206,14.19,74122.0,-1.39,-43.61,-43.81,0,*54
1506827112.93,27207,14.19,74122.5,-1.39,-43.41,-43.55,0,*5E
1506827114.18,27208,14.19,74122.8,-1.39,-42.75,-42.83,0,*5D
1506827115.42,27209,14.19,74122.5,-1.41,-42.45,-42.51,0,*5F
1506827116.69,27210,14.19,74122.5,-1.39,-42.57,-42.45,0,*5E
1506827117.92,27211,14.19,74120.5,-1.39,-42.37,-42.37,0,*5C
1506827119.15,27212,14.19,74122.5,-1.35,-42.37,-42.37,0,*53
1506827120.41,27213,14.19,74120.3,-1.35,-42.51,-42.69,0,*59
1506827121.69,27214,14.19,74122.8,-1.31,-42.95,-43.09,0,*55
1506827122.95,27215,14.19,74124.3,-1.35,-42.69,-42.75,0,*59
1506827124.21,27216,14.19,74124.5,-1.35,-42.57,-42.75,0,*57
1506827125.5,27217,14.19,74122.3,-1.31,-43.09,-43.09,0,*52
1506827126.75,27218,14.19,74120.5,-1.31,-43.29,-43.49,0,*5B
1506827128.01,27219,14.19,74124.5,-1.31,-43.81,-43.95,0,*59
1506827129.24,27220,14.19,74122.5,-1.31,-43.75,-43.95,0,*58
1506827130.5,27221,14.19,74124.8,-1.31,-43.49,-43.55,0,*5A
1506827131.75,27222,14.19,74122.3,-1.31,-43.67,-43.75,0,*57
1506827133.01,27223,14.19,74124.0,-1.35,-43.49,-43.67,0,*5D
1506827134.25,27224,14.19,74122.0,-1.35,-43.75,-43.95,0,*58
1506827135.53,27225,14.19,74124.3,-1.35,-43.81,-44.01,0,*58
1506827136.81,27226,14.19,74122.8,-1.35,-44.01,-44.21,0,*56
1506827138.1,27227,14.19,74126.5,-1.35,-44.01,-44.21,0,*57
1506827139.38,27228,14.19,74126.5,-1.31,-44.01,-44.01,0,*5E
1506827140.66,27229,14.19,74120.0,-1.35,-44.01,-44.21,0,*59
1506827141.94,27230,14.19,74116.8,-1.35,-44.01,-44.21,0,*51
1506827143.2,27231,14.19,74118.0,-1.39,-43.87,-44.01,0,*57
1506827144.43,27232,14.19,74112.5,-1.39,-43.61,-43.61,0,*5D
1506827145.67,27233,14.19,74112.3,-1.39,-43.75,-43.75,0,*5C
1506827146.92,27234,14.19,74110.8,-1.39,-43.87,-44.01,0,*52
1506827148.15,27235,14.19,74106.8,-1.41,-43.21,-43.41,0,*53
1506827149.39,27236,14.19,74104.0,-1.39,-42.63,-42.75,0,*5E
1506827150.66,27237,14.19,74100.0,-1.39,-42.57,-42.45,0,*5B
1506827151.95,27238,14.19,74100.5,-1.39,-42.31,-42.31,0,*57
1506827153.21,27239,14.19,74106.8,-1.31,-42.31,-42.25,0,*5B
1506827154.46,27240,14.19,74104.8,-1.31,-42.37,-42.31,0,*56
1506827155.69,27241,14.19,74106.3,-1.31,-42.51,-42.37,0,*51
1506827156.94,27242,14.19,74102.5,-1.31,-42.31,-42.37,0,*54
1506827158.2,27243,14.19,74108.8,-1.27,-42.45,-42.51,0,*51
1506827159.43,27244,14.19,74110.5,-1.29,-42.89,-43.09,0,*54
1506827160.64,27245,14.19,74112.0,-1.29,-43.41,-43.49,0,*54
1506827161.85,27246,14.19,74108.0,-1.29,-43.41,-43.49,0,*57
1506827163.11,27247,14.19,74108.3,-1.27,-43.29,-43.41,0,*5E
1506827164.32,27248,14.19,74106.3,-1.29,-43.61,-43.61,0,*51
1506827165.56,27249,14.19,74112.0,-1.27,-43.75,-43.75,0,*5E
1506827166.81,27250,14.19,74112.0,-1.31,-43.35,-43.55,0,*57
1506827168.09,27251,14.19,74108.5,-1.31,-43.29,-43.55,0,*5B
1506827169.37,27252,14.19,74114.0,-1.31,-43.55,-43.67,0,*52
1506827170.65,27253,14.19,74114.5,-1.31,-43.55,-43.81,0,*5B
1506827171.9,27254,14.19,74112.0,-1.31,-43.81,-43.95,0,*50
1506827173.16,27255,14.19,74112.3,-1.31,-43.81,-43.95,0,*51
1506827174.43,27256,14.19,74114.0,-1.31,-43.67,-43.81,0,*5F
1506827175.67,27257,14.19,74112.3,-1.35,-43.95,-43.95,0,*52
1506827176.94,27258,14.19,74112.0,-1.35,-43.81,-44.01,0,*52
1506827178.2,27259,14.19,74110.3,-1.35,-43.95,-44.01,0,*56
1506827179.45,27260,14.19,74112.5,-1.35,-43.75,-43.81,0,*5D
1506827180.71,27261,14.19,74114.8,-1.35,-43.49,-43.67,0,*5B
1506827181.99,27262,14.19,74112.5,-1.35,-43.67,-43.81,0,*5C
1506827183.25,27263,14.19,74110.5,-1.35,-43.49,-43.55,0,*58
1506827184.48,27264,14.19,74114.5,-1.35,-43.35,-43.49,0,*59
1506827185.72,27265,14.19,74116.8,-1.35,-43.49,-43.49,0,*53
1506827186.97,27266,14.19,74114.3,-1.35,-43.29,-43.49,0,*56
1506827188.23,27267,14.19,74112.5,-1.35,-43.29,-43.35,0,*5C
1506827189.46,27268,14.19,74114.8,-1.31,-43.15,-43.35,0,*58
1506827190.74,27269,14.19,74110.8,-1.31,-43.09,-43.29,0,*59
1506827191.97,27270,14.19,74112.8,-1.31,-43.35,-43.49,0,*58
1506827193.23,27271,14.19,74114.5,-1.31,-43.81,-43.95,0,*57
1506827194.48,27272,14.19,74112.5,-1.31,-43.75,-43.81,0,*5A
1506827195.73,27273,14.19,74114.5,-1.31,-43.55,-43.75,0,*52
1506827196.97,27274,14.19,74114.3,-1.35,-43.15,-43.35,0,*51
1506827198.25,27275,14.19,74112.0,-1.35,-43.09,-43.29,0,*50
1506827199.51,27276,14.19,74114.8,-1.35,-43.55,-43.49,0,*5C
1506827200.76,27277,14.19,74116.8,-1.35,-43.75,-43.81,0,*5B
1506827202.02,27278,14.19,74114.3,-1.31,-43.75,-43.67,0,*58
1506827203.28,27279,14.19,74116.0,-1.35,-43.55,-43.75,0,*5C
1506827204.54,27280,14.19,74108.5,-1.35,-43.49,-43.55,0,*55
1506827205.79,27281,14.19,74114.3,-1.31,-43.29,-43.49,0,*5B
1506827207.05,27282,14.19,74114.3,-1.35,-43.49,-43.67,0,*56
1506827208.31,27283,14.19,74112.5,-1.35,-43.67,-43.75,0,*58
1506827209.6,27284,14.19,74112.8,-1.35,-43.67,-43.67,0,*5C
1506827210.85,27285,14.19,74112.0,-1.35,-43.75,-43.81,0,*56
1506827212.09,27286,14.19,74112.0,-1.35,-43.49,-43.35,0,*55
1506827213.37,27287,14.19,74110.8,-1.39,-43.55,-43.55,0,*53
1506827214.65,27288,14.19,74114.5,-1.39,-43.55,-43.55,0,*5C
1506827215.89,27289,14.19,74112.5,-1.35,-43.49,-43.49,0,*51
1506827217.16,27290,14.19,74114.3,-1.35,-43.81,-43.81,0,*59
1506827218.4,27291,14.19,74112.5,-1.35,-43.75,-43.75,0,*58
1506827219.65,27292,14.19,74114.8,-1.35,-43.75,-43.81,0,*50
1506827220.88,27293,14.19,74112.5,-1.39,-43.87,-43.87,0,*56
1506827222.15,27294,14.19,74110.3,-1.35,-43.81,-43.81,0,*5D
1506827223.4,27295,14.19,74108.8,-1.35,-43.75,-43.81,0,*57
1506827224.6,27296,14.19,74114.3,-1.41,-43.87,-43.87,0,*5C
1506827225.84,27297,14.19,74114.0,-1.35,-43.75,-43.95,0,*50
1506827227.09,27298,14.19,74112.0,-1.35,-43.75,-43.81,0,*5A
1506827228.34,27299,14.19,74114.3,-1.41,-44.13,-44.13,0,*53
1506827229.59,27300,14.19,74114.3,-1.39,-43.87,-44.01,0,*54
1506827230.85,27301,14.19,74116.5,-1.39,-43.61,-43.81,0,*52
1506827232.11,27302,14.19,74118.8,-1.39,-43.55,-43.61,0,*58
1506827233.37,27303,14.19,74112.8,-1.39,-43.41,-43.55,0,*5B
1506827234.61,27304,14.19,74112.3,-1.39,-43.01,-43.15,0,*5C
1506827235.89,27305,14.19,74110.0,-1.39,-42.83,-42.83,0,*58
1506827237.15,27306,14.19,74114.5,-1.35,-42.69,-42.75,0,*5A
1506827238.41,27307,14.19,74108.0,-1.35,-42.69,-42.75,0,*5B
1506827239.67,27308,14.19,74108.8,-1.35,-42.75,-43.09,0,*53
1506827240.95,27309,14.19,74114.3,-1.31,-43.09,-43.29,0,*5E
1506827242.21,27310,14.19,74110.3,-1.35,-43.09,-43.15,0,*5D
1506827243.47,27311,14.19,74112.0,-1.35,-42.89,-42.95,0,*5C
1506827244.75,27312,14.19,74112.0,-1.31,-42.57,-42.69,0,*5B
1506827246.01,27313,14.19,74112.8,-1.35,-42.75,-42.95,0,*5D
1506827247.29,27314,14.19,74114.0,-1.35,-43.09,-43.29,0,*56
1506827248.52,27315,14.19,74118.3,-1.29,-42.83,-42.89,0,*52
1506827249.75,27316,14.19,74114.0,-1.31,-42.89,-43.15,0,*56
1506827251.01,27317,14.19,74114.8,-1.31,-43.29,-43.35,0,*5E
1506827252.26,27318,14.19,74116.5,-1.31,-43.49,-43.67,0,*50
1506827253.52,27319,14.19,74112.8,-1.31,-43.67,-43.75,0,*5E
1506827254.77,27320,14.19,74114.0,-1.31,-43.95,-44.01,0,*5D
1506827256.03,27321,14.19,74116.5,-1.31,-44.21,-44.41,0,*50
1506827257.31,27322,14.19,74116.3,-1.35,-44.21,-44.21,0,*51
1506827258.57,27323,14.19,74114.0,-1.35,-43.95,-44.13,0,*59
1506827259.83,27324,14.19,74114.5,-1.35,-43.81,-43.95,0,*52
1506827261.08,27325,14.19,74110.3,-1.35,-43.75,-43.81,0,*5D
1506827262.36,27326,14.19,74106.8,-1.35,-43.67,-43.81,0,*5D
1506827263.64,27327,14.19,74106.3,-1.35,-43.55,-43.55,0,*54
1506827264.87,27328,14.19,74112.3,-1.35,-42.89,-43.15,0,*5F
1506827266.13,27329,14.19,74108.8,-1.31,-42.75,-42.95,0,*50
1506827267.38,27330,14.19,74114.0,-1.31,-43.15,-43.29,0,*59
1506827268.64,27331,14.19,74112.0,-1.35,-43.29,-43.49,0,*55
1506827269.9,27332,14.19,74110.3,-1.35,-43.49,-43.67,0,*5C
1506827271.18,27333,14.19,74108.3,-1.31,-43.55,-43.55,0,*55
1506827272.44,27334,14.19,74106.0,-1.31,-43.49,-43.67,0,*5E
1506827273.7,27335,14.19,74108.0,-1.35,-42.89,-42.95,0,*5A
1506827274.93,27336,14.19,74110.0,-1.31,-42.89,-42.89,0,*50
1506827276.21,27337,14.19,74106.8,-1.31,-43.67,-43.55,0,*50
1506827277.47,27338,14.19,74112.8,-1.31,-43.09,-43.15,0,*53
1506827278.73,27339,14.19,74112.3,-1.31,-43.29,-43.49,0,*59
1506827279.96,27340,14.19,74110.5,-1.31,-43.15,-43.35,0,*53
1506827281.21,27341,14.19,74108.5,-1.31,-43.29,-43.35,0,*5D
1506827282.5,27342,14.19,74110.3,-1.31,-43.55,-43.67,0,*52
1506827283.75,27343,14.19,74114.0,-1.35,-43.75,-43.81,0,*5D
1506827285.02,27344,14.19,74114.0,-1.31,-43.81,-44.01,0,*5A
1506827286.28,27345,14.19,74112.3,-1.35,-43.81,-43.95,0,*55
1506827287.56,27346,14.19,74112.8,-1.31,-44.01,-44.21,0,*55
1506827288.85,27347,14.19,74108.0,-1.35,-44.01,-44.21,0,*50
1506827290.1,27348,14.19,74110.8,-1.35,-43.95,-44.13,0,*54
1506827291.35,27349,14.19,74118.3,-1.39,-43.87,-43.81,0,*56
1506827292.6,27350,14.19,74114.8,-1.39,-43.81,-43.87,0,*5E
1506827293.84,27351,14.19,74110.0,-1.39,-43.61,-43.61,0,*59
1506827295.08,27352,14.19,74104.0,-1.41,-43.41,-43.55,0,*50
1506827296.36,27353,14.19,74114.3,-1.35,-42.95,-43.29,0,*51
1506827297.64,27354,14.19,74114.3,-1.35,-43.55,-43.55,0,*50
1506827298.91,27355,14.19,74114.3,-1.35,-42.95,-43.35,0,*5A